Wink, TX

3:20 AM CDT on July 28, 2017 (GMT -0500)
Winkler County

Weather History for KINK - September, 2012

Change the Weather History Date:

Sunday, September 2, 2012

  Actual Average Record
Temperature  
Mean Temperature 86 °F -  
Max Temperature 99 °F 91 °F 105 °F (2014)
Min Temperature 73 °F 66 °F 54 °F (1955)
Cooling Degree Days 20    
Growing Degree Days 36 (Base 50)    
Moisture  
Dew Point 58 °F    
Average Humidity 43    
Maximum Humidity 71    
Minimum Humidity 20    
Precipitation  
Precipitation 0.00 in - - ()
Sea Level Pressure  
Sea Level Pressure 29.86 in    
Wind  
Wind Speed 9 mph (SE)    
Max Wind Speed 14 mph    
Max Gust Speed 18 mph    
Visibility 10 miles    
Events      
Averages and records for this station are not official NWS values.
T = Trace of Precipitation, MM = Missing Value Source: NWS Daily Summary

Daily Weather History Graph

Daily Weather History Graph

Search for Another Location

Airport or City:

Trip Planner

Search our weather history database for the weather conditions in past years. The results will help you decide how hot, cold, wet, or windy it might be!

Date:

Astronomy

Sep. 02, 2012 Rise Set
Actual Time 7:29 AM CDT 8:14 PM CDT
Civil Twilight 7:04 AM CDT 8:39 PM CDT
Nautical Twilight 6:35 AM CDT 9:08 PM CDT
Astronomical Twilight 6:05 AM CDT 9:38 PM CDT
Moon 9:17 PM CDT (9/2) 9:27 AM CDT (9/2)
Length of Visible Light 13h 35m
Length of Day
12h 45m
Waning Gibbous, 95% of the Moon is Illuminated
Sep 2
Waning Gibbous
Sep 8
Last Quarter
Sep 15
New
Sep 22
First Quarter
Sep 29
Full

Hourly Weather History & Observations

Time (CDT) Temp. Heat Index Dew Point Humidity Pressure Visibility Wind Dir Wind Speed Gust Speed Precip Events Conditions
12:53 AM 80.1 °F 80.0 °F 54.0 °F 40% 29.88 in 10.0 mi South 6.9 mph - N/A   Clear
1:53 AM 77.0 °F - 55.0 °F 47% 29.88 in 10.0 mi SSE 5.8 mph - N/A   Clear
2:53 AM 75.0 °F - 55.0 °F 50% 29.88 in 10.0 mi SE 6.9 mph - N/A   Clear
3:53 AM 75.9 °F - 57.0 °F 52% 29.88 in 10.0 mi ESE 8.1 mph - N/A   Clear
4:53 AM 75.9 °F - 59.0 °F 56% 29.86 in 10.0 mi ESE 10.4 mph - N/A   Clear
5:53 AM 73.9 °F - 60.1 °F 62% 29.87 in 10.0 mi ESE 9.2 mph - N/A   Clear
6:53 AM 73.9 °F - 62.1 °F 66% 29.88 in 10.0 mi SE 11.5 mph - N/A   Clear
7:53 AM 73.0 °F - 63.0 °F 71% 29.91 in 10.0 mi SE 11.5 mph - N/A   Clear
8:53 AM 77.0 °F - 64.0 °F 64% 29.92 in 10.0 mi SE 12.7 mph - N/A   Clear
9:53 AM 80.1 °F 81.9 °F 64.9 °F 60% 29.93 in 10.0 mi SSE 12.7 mph - N/A   Clear
10:53 AM 84.0 °F 85.4 °F 64.0 °F 51% 29.93 in 10.0 mi SSE 10.4 mph - N/A   Clear
11:53 AM 88.0 °F 88.7 °F 63.0 °F 43% 29.92 in 10.0 mi SE 9.2 mph - N/A   Clear
12:53 PM 91.0 °F 91.5 °F 62.1 °F 38% 29.89 in 10.0 mi SE 5.8 mph - N/A   Clear
1:53 PM 93.0 °F 92.7 °F 60.1 °F 33% 29.87 in 10.0 mi ESE 4.6 mph - N/A   Clear
2:53 PM 97.0 °F 95.3 °F 55.9 °F 25% 29.84 in 10.0 mi SSW 9.2 mph 16.1 mph N/A   Clear
3:53 PM 96.1 °F 94.1 °F 55.0 °F 25% 29.82 in 10.0 mi Calm Calm - N/A   Partly Cloudy
4:53 PM 98.1 °F - 51.1 °F 20% 29.79 in 10.0 mi SSE 10.4 mph 18.4 mph N/A   Mostly Cloudy
5:53 PM 97.0 °F - 52.0 °F 22% 29.78 in 10.0 mi ESE 4.6 mph - N/A   Partly Cloudy
6:53 PM 97.0 °F 94.6 °F 54.0 °F 23% 29.77 in 10.0 mi SSE 10.4 mph - N/A   Partly Cloudy
7:53 PM 93.9 °F 92.0 °F 55.0 °F 27% 29.77 in 10.0 mi SE 9.2 mph - N/A   Partly Cloudy
8:53 PM 91.0 °F 89.2 °F 55.9 °F 30% 29.79 in 10.0 mi SE 11.5 mph - N/A   Clear
9:53 PM 88.0 °F 86.7 °F 57.0 °F 35% 29.81 in 10.0 mi SE 11.5 mph - N/A   Clear
10:53 PM 86.0 °F 85.7 °F 60.1 °F 41% 29.82 in 10.0 mi SE 13.8 mph - N/A   Clear
11:53 PM 84.0 °F 84.4 °F 61.0 °F 46% 29.83 in 10.0 mi SE 12.7 mph - N/A   Clear